Regional Weather Roundup
Issued by NWS Austin/San Antonio, TX

Current Version | Previous Version | Text Only | Print | Product List | Glossary On
Versions: 1 2 3 4 5 6 7 8 9 10 11 12 13 14 15 16 17 18 19 20 21 22 23 24 25 26 27 28 29 30 31 32 33 34 35 36 37 38 39 40 41 42 43 44 45 46 47 48 49 50
000
ASUS44 KEWX 172010
RWREWX
SOUTH TEXAS REGIONAL WEATHER ROUNDUP
NATIONAL WEATHER SERVICE AUSTIN/SAN ANTONIO TX
300 PM CDT THU JUN 17 2021

NOTE: "FAIR" INDICATED FEW OR NO CLOUDS BELOW 12,000 FEET WITH NO
SIGNIFICANT WEATHER AND/OR OBSTRUCTIONS TO VISIBILITY.

* - THESE STATIONS ARE NOT NWS OR FAA STATIONS...AND ARE NOT SUBJECT
    TO NWS AND FAA QUALITY CONTROL.

TXZ171-172-183>190-172100-
TEXAS HILL COUNTRY AND EDWARDS PLATEAU

CITY           SKY/WX    TMP DP  RH WIND       PRES   REMARKS
JUNCTION       MOSUNNY   92  58  31 E8        30.03F HX  91
*LLANO         SUNNY     93  63  36 CALM      29.99F HX  94
BURNET         PTSUNNY   92  66  42 E6        30.02F HX  94
*HORSESHOE BAY PTSUNNY   94  64  37 NE5       30.00F HX  95
*LAGO VISTA    PTSUNNY   97  62  31 SE5       30.01F HX  97
*KERRVILLE     SUNNY     92  67  44 E5        30.03F HX  95
*FREDERICKSBRG MOSUNNY   90  59  35 E8        30.04F
*ROCKSPRINGS     N/A     88  59  37 MISG      30.10F
*BOERNE        PTSUNNY   88  64  45 E3        30.02F
*CASTROVILLE   SUNNY     95  62  33 SE7       29.99F HX  96
HONDO          MOSUNNY   92  69  47 SE10G20   29.99F HX  97
*UVALDE        MOSUNNY   91  66  43 E9        30.00F HX  93
DEL RIO        MOSUNNY  100  63  29 SE9G22    29.97F HX 102
*LAUGHLIN AFB  MOSUNNY   94  61  33 SE9       29.97F HX  94
*SPOFFORD      MOSUNNY   94  62  34 E10G20    29.92F HX  95
*EAGLE PASS    SUNNY     95  61  31 SE9G17    29.97F HX  95
CARRIZO SPRGS  MOSUNNY   95  61  31 E7        29.95F HX  95
$$

TXZ173-191>194-202-209-217>225-228-172100-
CENTRAL AND SOUTH CENTRAL TEXAS

CITY           SKY/WX    TMP DP  RH WIND       PRES   REMARKS
GEORGETOWN     PTSUNNY   94  66  39 NE3       30.00F HX  97
*TAYLOR        MOSUNNY   97  67  37 E9        29.98F HX 101
AUSTIN/BERGSTM MOSUNNY   93  66  40 CALM      29.96F HX  96
AUSTIN/MABRY   MOSUNNY   94  64  37 VRB5      29.98F HX  95
*PFLUGERVILLE  SUNNY     93  64  38 CALM      29.96F HX  95
SAN MARCOS     NOT AVBL
NEW BRAUNFELS  MOSUNNY   94  67  41 MISG      29.97F HX  97
*RANDOLPH AFB  MOSUNNY   92  67  44 SE5       29.97F HX  95
*SEGUIN        MOSUNNY   92  67  43 SE6       30.00F HX  95
SAN ANTONIO    MOSUNNY   92  68  45 E8G18     29.98F HX  96
STINSON FIELD  MOSUNNY   94  69  44 SE10G18   29.95F HX  99
*KELLY FIELD   MOSUNNY   92  66  42 NE7       29.96F HX  94
*PLEASANTON    MOSUNNY   96  67  39 E10       29.97F HX 100
*KENEDY        MOSUNNY   95  68  41 E9        29.96F HX  99
*LA GRANGE     MOSUNNY   94  70  45 E5        29.94F HX 100
*GIDDINGS      PTSUNNY   91  67  45 CALM      29.97F HX  95
*GONZALES      MOSUNNY   94  72  48 E6        29.96F HX 102
$$

TXZ163>164-176>182-195>201-210>213-226-227-235-172100-
SOUTHEAST TEXAS

CITY           SKY/WX    TMP DP  RH WIND       PRES   REMARKS
COLLEGE STN    MOSUNNY   95  71  45 NE9       29.95F HX 102
*BRYAN           N/A     93  71  47 SE3       29.97F HX 100
*CALDWELL      PTSUNNY   94  69  44 E7        29.97F HX  99
*CROCKETT      PTSUNNY   90  72  55 NE6       29.98S HX  96
*BRENHAM       MOSUNNY   95  73  48 SE5       29.96F HX 104
HUNTSVILLE     MOSUNNY   94  71  47 VRB5      29.97F HX 101
CONROE         PTSUNNY   90  73  57 E7        29.97F HX  98
HOUSTON BUSH   MOSUNNY   93  70  46 VRB5      29.95F HX  99
HOUSTON HOBBY  PTSUNNY   94  66  39 E8        29.94F HX  97
*HOUSTON SW AP SUNNY     94  70  46 E5        29.96S HX  99
PEARLAND       MOSUNNY   91  68  46 E8        29.96F HX  95
HOUSTON HOOKS  MOSUNNY   94  72  48 CALM      29.95F HX 102
ELLINGTON FLD  PTSUNNY   91  68  46 E15       29.94F HX  95
SUGAR LAND     PTSUNNY   93  68  43 SE7       29.94F HX  97
*HOUSTON EXEC  NOT AVBL
*CLEVELAND MUN SUNNY     91  67  44 CALM      29.97F HX  94
*WHARTON       MOSUNNY   94  65  38 NE9       29.95F HAZE    HX  96
*COLUMBUS      FAIR      93  72  50 E5        29.97S HX 100
*EAGLE LAKE    NOT AVBL
$$

TXZ214>216-236>238-172100-
THE UPPER TEXAS COAST

CITY           SKY/WX    TMP DP  RH WIND       PRES   REMARKS
*ORANGE        SUNNY     92  52  25 CALM      29.97F
PORT ARTHUR    SUNNY     92  64  39 E13       29.94F HX  93
GALVESTON      SUNNY     92  67  43 E10       29.96S HX  95
ANGLETON       PTSUNNY   91  68  46 E10G18    29.95R HX  95
*BAY CITY      PTSUNNY   93  72  50 E10       29.94S HX 100
PALACIOS       PTSUNNY   92  73  53 E10       29.93F HX 100
$$

TXZ229>234-239>247-172100-
TEXAS COASTAL BEND AND RIO GRANDE PLAINS

CITY           SKY/WX    TMP DP  RH WIND       PRES   REMARKS
VICTORIA       PTSUNNY   90  74  59 E6        29.94F HX  99
*BEEVILLE      MOSUNNY   93  78  62 NE8       29.94F HX 109
ROCKPORT       MOSUNNY   91  78  65 SE9       29.93F HX 106
*PORT ARANSAS  SUNNY     88  75  64 E12       29.96S HX  98
*PORT LAVACA   MOSUNNY   92  74  56 SE6       29.94F HX 101
*INGLESIDE     MOSUNNY   92  75  56 SE10      29.93S HX 103
CORPUS CHRISTI MOSUNNY   93  72  50 E12G21    29.94F HX 101
CORPUS NAS     PTSUNNY   91  76  61 E14       29.93F HX 103
*ROBSTOWN      MOSUNNY   96  72  45 E13G21    29.94F HX 103
ALICE          MOSUNNY   93  70  46 E10       29.94F HX  99
KINGSVILLE NAS PTSUNNY   91  74  57 E6        29.93F HX 100
COTULLA        MOSUNNY   98  62  30 E10       29.96F HX  99
LAREDO         MOSUNNY   97  65  34 E13G20    29.94F HX  99
$$

TXZ248>255-172100-
DEEP SOUTH TEXAS

CITY           SKY/WX    TMP DP  RH WIND       PRES   REMARKS
BROWNSVILLE    MOSUNNY   90  71  53 E15G22    29.92F HX  96
PORT ISABEL    MOSUNNY   89  74  60 NE14G24   29.93S HX  98
HARLINGEN      MOSUNNY   91  75  59 NE15      29.91F HX 101
*HEBBRONVILLE  PTSUNNY   91  51  25 E14       29.98S
MCALLEN        PTSUNNY   90  68  48 E10       29.93F HX  94
*WESLACO       MOSUNNY   92  70  48 E13G18    29.92S HX  97
FALFURRIAS     MOSUNNY   87  71  58 E10G17    29.94F HX  92
EDINBURG       MOSUNNY   92  74  56 E12G17    29.93F HX 101
*ZAPATA        PTSUNNY   98  64  32 E7G17     29.94F HX  99
$$

TXZ213>215-236>238-242>244-246-247-251-254-255-172100-
CMAN STATIONS

STATION/POSITION TIME  TEMP    WIND        PRES    WAVE
                       AIR SEA DIR/SP/G            HT/PER
                 (UTC) (F)     (DEG/KT/KT) (MB)    (FT/S)
NORTH JETTY/GLS  1918   84 86   80/ 12/ 14 1013.5
EAGLE POINT      1930   86 88  100/  8/  9 1014.1
MORGANS POINT    1924   88 86   80/  8/ 11 1014.4
MISSION/ARANSAS  1900   86     100/ 12     1015.0
PORT O`CONNOR    1930   87 89  100/ 10/ 11 1013.5
PORT ARANSAS     2000   84 86   80/ 11/ 13   N/A
MALAQUITE BEACH  1930   88      20/ 10/ 12   N/A
BAFFIN BAY       1930   85 90   30/ 13/ 17 1013.5
PORT ISABEL      1930   86 85   40/ 12/ 16 1014.5
$$



USA.gov is the U.S. government's official web portal to all federal, state and local government web resources and services.